Minneapolis Flying Cloud, MN

10:00 AM CST on December 16, 2017 (GMT -0600)
Flying Cloud

Weather History for KFCM - July, 2014

Change the Weather History Date:

Tuesday, July 29, 2014

  Actual Average Record
Temperature  
Mean Temperature 70 °F -  
Max Temperature 81 °F 81 °F 97 °F (2006)
Min Temperature 61 °F 61 °F 54 °F (2013)
Cooling Degree Days 6    
Growing Degree Days 20 (Base 50)    
Moisture  
Dew Point 56 °F    
Average Humidity 63    
Maximum Humidity 83    
Minimum Humidity 43    
Precipitation  
Precipitation 0.00 in - - ()
Sea Level Pressure  
Sea Level Pressure 30.09 in    
Wind  
Wind Speed 7 mph (NW)    
Max Wind Speed 14 mph    
Max Gust Speed 21 mph    
Visibility 10 miles    
Events      
Averages and records for this station are not official NWS values.
T = Trace of Precipitation, MM = Missing Value Source: NWS Daily Summary

Daily Weather History Graph

Daily Weather History Graph

Search for Another Location

Airport or City:

Trip Planner

Search our weather history database for the weather conditions in past years. The results will help you decide how hot, cold, wet, or windy it might be!

Date:

Astronomy

Jul. 29, 2014 Rise Set
Actual Time 5:56 AM CDT 8:43 PM CDT
Civil Twilight 5:22 AM CDT 9:17 PM CDT
Nautical Twilight 4:39 AM CDT 10:00 PM CDT
Astronomical Twilight 3:48 AM CDT 10:50 PM CDT
Moon 8:42 AM CDT (7/29) 9:46 PM CDT (7/29)
Length of Visible Light 15h 55m
Length of Day
14h 47m
Waxing Crescent, 7% of the Moon is Illuminated
Jul 29
Waxing Crescent
Aug 3
First Quarter
Aug 10
Full
Aug 17
Last Quarter
Aug 25
New

Hourly Weather History & Observations

Time (CDT) Temp. Heat Index Dew Point Humidity Pressure Visibility Wind Dir Wind Speed Gust Speed Precip Events Conditions
12:53 AM 64.9 °F - 55.9 °F 73% 30.13 in 10.0 mi NW 8.1 mph - N/A   Clear
1:53 AM 64.9 °F - 55.9 °F 73% 30.12 in 10.0 mi NNW 6.9 mph - N/A   Clear
2:53 AM 63.0 °F - 55.9 °F 78% 30.12 in 10.0 mi NW 4.6 mph - N/A   Clear
3:53 AM 62.1 °F - 55.9 °F 80% 30.11 in 10.0 mi WNW 3.5 mph - N/A   Clear
4:53 AM 61.0 °F - 55.9 °F 83% 30.12 in 10.0 mi Calm Calm - N/A   Clear
5:53 AM 61.0 °F - 55.0 °F 81% 30.12 in 10.0 mi NNW 3.5 mph - N/A   Clear
6:53 AM 61.0 °F - 55.0 °F 81% 30.12 in 10.0 mi West 3.5 mph - N/A   Clear
7:53 AM 66.0 °F - 57.0 °F 73% 30.13 in 10.0 mi NW 4.6 mph - N/A   Clear
9:53 AM 70.0 °F - 57.9 °F 65% 30.13 in 10.0 mi West 4.6 mph - N/A   Clear
10:53 AM 73.9 °F - 59.0 °F 59% 30.12 in 8.0 mi WNW 5.8 mph - N/A   Clear
11:53 AM 75.9 °F - 57.9 °F 54% 30.12 in 10.0 mi WNW 11.5 mph - N/A   Clear
12:53 PM 78.1 °F - 55.9 °F 46% 30.10 in 10.0 mi WNW 9.2 mph - N/A   Scattered Clouds
1:53 PM 79.0 °F - 55.9 °F 45% 30.09 in 10.0 mi NW 13.8 mph 20.7 mph N/A   Clear
2:53 PM 80.1 °F 80.2 °F 55.9 °F 43% 30.07 in 10.0 mi West 11.5 mph - N/A   Partly Cloudy
3:53 PM 78.1 °F - 54.0 °F 43% 30.06 in 10.0 mi NW 11.5 mph - N/A   Partly Cloudy
5:53 PM 78.1 °F - 55.0 °F 45% 30.04 in 10.0 mi West 11.5 mph - N/A   Partly Cloudy
6:53 PM 78.1 °F - 55.0 °F 45% 30.02 in 9.0 mi WNW 13.8 mph - N/A   Scattered Clouds
7:53 PM 75.9 °F - 54.0 °F 46% 30.03 in 10.0 mi NW 8.1 mph - N/A   Partly Cloudy
8:53 PM 71.1 °F - 55.9 °F 59% 30.03 in 9.0 mi NNW 4.6 mph - N/A   Partly Cloudy
9:53 PM 69.1 °F - 55.9 °F 63% 30.05 in 10.0 mi NNW 4.6 mph - N/A   Clear
10:53 PM 66.9 °F - 55.9 °F 68% 30.05 in 10.0 mi NW 4.6 mph - N/A   Clear
11:53 PM 66.0 °F - 57.0 °F 73% 30.05 in 10.0 mi WNW 4.6 mph - N/A   Clear